TimeEDT,TemperatureF,Dew PointF,Humidity,Sea Level PressureIn,VisibilityMPH,Wind Direction,Wind SpeedMPH,Gust SpeedMPH,PrecipitationIn,Events,Conditions,WindDirDegrees,DateUTC
12:15 AM,36.5,31.6,83,30.08,10.0,WSW,5.8,-,N/A,,Overcast,240,2012-10-07 04:15:00
12:34 AM,36.9,31.3,80,30.08,10.0,West,5.8,-,N/A,,Overcast,260,2012-10-07 04:34:00
12:54 AM,37.4,31.5,79,30.08,10.0,WNW,5.8,-,N/A,Rain,Light Rain,290,2012-10-07 04:54:00
1:15 AM,37.4,32.0,81,30.08,7.0,Calm,Calm,-,N/A,Rain,Light Rain,0,2012-10-07 05:15:00
1:34 AM,37.6,32.0,80,30.09,10.0,Calm,Calm,-,N/A,,Overcast,0,2012-10-07 05:34:00
1:55 AM,37.6,32.2,81,30.09,10.0,Calm,Calm,-,N/A,,Overcast,0,2012-10-07 05:55:00
2:14 AM,37.4,32.4,82,30.09,10.0,WSW,3.5,-,N/A,,Overcast,240,2012-10-07 06:14:00
2:35 AM,37.4,31.8,80,30.09,10.0,WSW,4.6,-,N/A,,Overcast,240,2012-10-07 06:35:00
2:55 AM,36.7,31.6,82,30.09,10.0,SW,5.8,-,N/A,,Overcast,230,2012-10-07 06:55:00
3:14 AM,36.3,31.8,84,30.09,10.0,SW,5.8,-,N/A,,Overcast,230,2012-10-07 07:14:00
3:35 AM,36.0,31.3,83,30.08,10.0,WSW,3.5,-,N/A,,Overcast,240,2012-10-07 07:35:00
3:54 AM,36.0,31.3,83,30.09,10.0,North,3.5,-,N/A,,Light Drizzle,360,2012-10-07 07:54:00
4:14 AM,36.0,32.0,86,30.09,3.0,Calm,Calm,-,N/A,Rain,Rain,0,2012-10-07 08:14:00
4:35 AM,35.1,32.0,89,30.09,7.0,Calm,Calm,-,N/A,Rain,Light Rain,0,2012-10-07 08:35:00
4:54 AM,35.6,32.2,87,30.09,7.0,Calm,Calm,-,N/A,,Drizzle,0,2012-10-07 08:54:00
5:14 AM,34.0,31.1,89,30.08,10.0,Calm,Calm,-,N/A,,Scattered Clouds,0,2012-10-07 09:14:00
5:35 AM,32.5,30.2,91,30.09,10.0,SW,5.8,-,N/A,,Clear,230,2012-10-07 09:35:00
5:54 AM,32.4,30.0,91,30.09,10.0,WSW,5.8,-,N/A,,Clear,240,2012-10-07 09:54:00
6:14 AM,32.0,29.1,89,30.08,10.0,SW,5.8,-,N/A,,Clear,230,2012-10-07 10:14:00
6:34 AM,31.8,28.9,89,30.08,10.0,WSW,5.8,-,N/A,,Clear,240,2012-10-07 10:34:00
6:54 AM,31.3,28.6,90,30.08,10.0,SW,5.8,-,N/A,,Scattered Clouds,230,2012-10-07 10:54:00
7:14 AM,32.0,29.3,90,30.08,10.0,WSW,6.9,-,N/A,,Overcast,240,2012-10-07 11:14:00
7:55 AM,32.5,30.2,91,30.08,10.0,WSW,5.8,-,N/A,,Overcast,240,2012-10-07 11:55:00
8:14 AM,32.9,30.2,90,30.09,5.0,WSW,8.1,-,N/A,,Mostly Cloudy,240,2012-10-07 12:14:00
8:34 AM,32.9,30.4,90,30.10,7.0,WSW,5.8,-,N/A,,Scattered Clouds,240,2012-10-07 12:34:00
8:55 AM,34.7,31.6,89,30.10,7.0,WSW,5.8,-,N/A,,Clear,240,2012-10-07 12:55:00
9:14 AM,36.7,32.4,84,30.10,7.0,SW,5.8,-,N/A,,Scattered Clouds,230,2012-10-07 13:14:00
9:54 AM,40.1,32.9,75,30.10,10.0,WSW,9.2,-,N/A,,Clear,240,2012-10-07 13:54:00
10:14 AM,41.9,32.5,69,30.10,10.0,WSW,6.9,-,N/A,,Clear,240,2012-10-07 14:14:00
10:35 AM,42.8,32.2,66,30.10,10.0,SW,6.9,-,N/A,,Clear,230,2012-10-07 14:35:00
10:54 AM,43.5,31.3,62,30.10,10.0,WSW,6.9,-,N/A,,Clear,240,2012-10-07 14:54:00
11:14 AM,44.8,26.8,49,30.09,10.0,SSW,5.8,-,N/A,,Mostly Cloudy,210,2012-10-07 15:14:00
11:35 AM,45.0,26.1,48,30.09,10.0,SSW,3.5,-,N/A,,Overcast,200,2012-10-07 15:35:00
11:54 AM,46.9,29.3,50,30.09,10.0,SW,9.2,-,N/A,,Scattered Clouds,230,2012-10-07 15:54:00
12:14 PM,47.3,27.7,47,30.08,10.0,West,3.5,-,N/A,,Clear,280,2012-10-07 16:14:00
12:35 PM,47.1,27.3,46,30.08,10.0,SW,3.5,-,N/A,,Scattered Clouds,220,2012-10-07 16:35:00
12:54 PM,47.7,27.1,45,30.07,10.0,SW,3.5,-,N/A,,Mostly Cloudy,230,2012-10-07 16:54:00
1:15 PM,46.4,27.0,47,30.07,10.0,WNW,4.6,-,N/A,,Mostly Cloudy,300,2012-10-07 17:15:00
1:34 PM,48.4,26.8,43,30.07,10.0,WNW,5.8,-,N/A,,Mostly Cloudy,290,2012-10-07 17:34:00
1:54 PM,48.0,25.3,41,30.06,10.0,West,5.8,-,N/A,,Mostly Cloudy,260,2012-10-07 17:54:00
2:15 PM,46.4,28.6,50,30.05,10.0,Calm,Calm,-,N/A,,Mostly Cloudy,0,2012-10-07 18:15:00
2:34 PM,45.7,28.6,51,30.05,10.0,NNE,4.6,-,N/A,,Overcast,30,2012-10-07 18:34:00
2:54 PM,45.5,29.1,53,30.05,10.0,Calm,Calm,-,N/A,,Overcast,0,2012-10-07 18:54:00
3:15 PM,45.9,28.6,51,30.05,10.0,Calm,Calm,-,N/A,,Overcast,0,2012-10-07 19:15:00
3:34 PM,46.8,29.3,51,30.05,10.0,SSW,3.5,-,N/A,,Overcast,200,2012-10-07 19:34:00
3:54 PM,49.1,28.6,45,30.04,10.0,South,9.2,-,N/A,,Overcast,190,2012-10-07 19:54:00
4:15 PM,47.3,26.6,45,30.03,10.0,SW,5.8,-,N/A,,Mostly Cloudy,230,2012-10-07 20:15:00
4:34 PM,47.5,28.4,48,30.03,10.0,SW,9.2,-,N/A,,Mostly Cloudy,220,2012-10-07 20:34:00
4:55 PM,44.8,31.5,60,30.05,10.0,West,13.8,24.2,N/A,,Overcast,270,2012-10-07 20:55:00
5:14 PM,41.9,31.5,66,30.05,10.0,WSW,11.5,17.3,N/A,,Overcast,250,2012-10-07 21:14:00
5:34 PM,41.2,32.5,71,30.05,10.0,WSW,4.6,-,N/A,,Overcast,240,2012-10-07 21:34:00
5:55 PM,43.3,32.0,64,30.05,10.0,WSW,5.8,-,N/A,,Overcast,250,2012-10-07 21:55:00
6:14 PM,41.9,32.4,69,30.06,10.0,West,10.4,-,N/A,,Mostly Cloudy,280,2012-10-07 22:14:00
6:34 PM,39.0,33.8,82,30.07,7.0,West,10.4,16.1,N/A,Rain,Light Rain,260,2012-10-07 22:34:00
6:55 PM,38.3,33.8,84,30.05,7.0,Calm,Calm,-,N/A,,Overcast,0,2012-10-07 22:55:00
7:14 PM,38.3,34.0,84,30.05,10.0,SSW,3.5,-,N/A,,Overcast,200,2012-10-07 23:14:00
7:34 PM,37.9,33.6,84,30.05,7.0,SSW,4.6,-,N/A,,Mostly Cloudy,200,2012-10-07 23:34:00
7:55 PM,37.4,32.9,84,30.05,7.0,SSW,4.6,-,N/A,,Mostly Cloudy,210,2012-10-07 23:55:00
8:14 PM,36.9,33.1,86,30.06,10.0,SSW,4.6,-,N/A,,Overcast,200,2012-10-08 00:14:00
8:35 PM,36.7,32.9,86,30.06,10.0,SSW,3.5,-,N/A,,Overcast,210,2012-10-08 00:35:00
8:55 PM,36.7,33.1,87,30.06,10.0,SSW,4.6,-,N/A,,Overcast,210,2012-10-08 00:55:00
9:14 PM,36.7,33.1,87,30.06,7.0,SW,4.6,-,N/A,,Overcast,220,2012-10-08 01:14:00
9:34 PM,37.4,33.3,85,30.06,7.0,SSW,5.8,-,N/A,,Overcast,210,2012-10-08 01:34:00
9:55 PM,36.7,32.7,86,30.06,10.0,SSW,5.8,-,N/A,,Scattered Clouds,210,2012-10-08 01:55:00
10:14 PM,36.5,32.2,84,30.06,10.0,SSW,4.6,-,N/A,,Scattered Clouds,210,2012-10-08 02:14:00
10:34 PM,36.1,32.0,85,30.06,10.0,SSW,5.8,-,N/A,,Clear,200,2012-10-08 02:34:00
10:55 PM,35.6,32.0,87,30.06,10.0,SSW,5.8,-,N/A,,Clear,210,2012-10-08 02:55:00
11:14 PM,35.4,31.5,85,30.06,10.0,SSW,6.9,-,N/A,,Clear,210,2012-10-08 03:14:00
11:35 PM,35.2,31.1,85,30.06,10.0,SW,6.9,-,N/A,,Clear,220,2012-10-08 03:35:00
11:54 PM,35.2,30.9,84,30.06,10.0,SSW,6.9,-,N/A,,Clear,210,2012-10-08 03:54:00